TimeCST,TemperatureF,Dew PointF,Humidity,Sea Level PressureIn,VisibilityMPH,Wind Direction,Wind SpeedMPH,Gust SpeedMPH,PrecipitationIn,Events,Conditions,WindDirDegrees,DateUTC
12:43 AM,37.4,35.6,93,29.93,5.0,SE,8.1,-,0.01,,Overcast,130,2013-02-10 06:43:00
12:53 AM,37.9,36.0,93,29.95,5.0,SE,6.9,-,0.01,,Overcast,130,2013-02-10 06:53:00
1:53 AM,39.0,37.0,93,29.90,5.0,East,5.8,-,N/A,,Overcast,100,2013-02-10 07:53:00
2:53 AM,39.9,37.0,89,29.84,6.0,ESE,6.9,-,N/A,,Overcast,110,2013-02-10 08:53:00
3:26 AM,41.0,37.4,87,29.80,6.0,ESE,8.1,-,N/A,,Overcast,120,2013-02-10 09:26:00
3:53 AM,42.1,39.0,89,29.78,5.0,SE,8.1,-,N/A,,Overcast,130,2013-02-10 09:53:00
4:53 AM,44.1,41.0,89,29.78,5.0,SE,5.8,-,N/A,,Overcast,140,2013-02-10 10:53:00
5:49 AM,42.8,41.0,93,29.76,4.0,East,4.6,-,0.00,Rain-Thunderstorm,Light Rain,90,2013-02-10 11:49:00
5:53 AM,43.0,41.0,93,29.77,4.0,ENE,4.6,-,0.01,Rain-Thunderstorm,Light Rain,70,2013-02-10 11:53:00
9:01 AM,-9999,-9999,N/A,-9999,-9999.0,North,-9999.0,-,N/A,,Unknown,0,2013-02-10 15:01:00
9:36 AM,48.2,48.2,100,29.72,5.0,SE,4.6,-,N/A,,Overcast,140,2013-02-10 15:36:00
9:53 AM,50.0,48.0,93,29.72,6.0,SE,5.8,-,N/A,,Overcast,130,2013-02-10 15:53:00
10:46 AM,55.4,51.8,88,29.71,10.0,South,10.4,-,N/A,,Scattered Clouds,170,2013-02-10 16:46:00
10:53 AM,55.0,52.0,89,29.70,10.0,South,12.7,-,N/A,,Partly Cloudy,170,2013-02-10 16:53:00
11:53 AM,60.1,54.0,80,29.66,10.0,South,9.2,18.4,N/A,,Scattered Clouds,180,2013-02-10 17:53:00
12:02 PM,60.8,53.6,77,29.65,10.0,South,9.2,17.3,N/A,,Mostly Cloudy,170,2013-02-10 18:02:00
12:26 PM,64.4,53.6,68,29.64,10.0,SW,11.5,23.0,N/A,,Scattered Clouds,220,2013-02-10 18:26:00
12:53 PM,64.9,50.0,58,29.64,10.0,SW,15.0,20.7,N/A,,Mostly Cloudy,220,2013-02-10 18:53:00
1:53 PM,66.0,37.9,36,29.64,10.0,WSW,13.8,24.2,N/A,,Clear,240,2013-02-10 19:53:00
2:53 PM,66.0,26.1,22,29.66,10.0,SW,11.5,26.5,N/A,,Clear,220,2013-02-10 20:53:00
3:53 PM,64.9,25.0,22,29.69,10.0,West,9.2,19.6,N/A,,Clear,260,2013-02-10 21:53:00
4:53 PM,63.0,25.0,24,29.72,10.0,WNW,6.9,-,N/A,,Clear,290,2013-02-10 22:53:00
5:53 PM,57.9,23.0,26,29.76,10.0,Variable,4.6,-,N/A,,Clear,0,2013-02-10 23:53:00
6:53 PM,55.0,25.0,31,29.80,10.0,Variable,3.5,-,N/A,,Clear,0,2013-02-11 00:53:00
7:53 PM,55.0,25.0,31,29.83,10.0,West,10.4,17.3,N/A,,Clear,280,2013-02-11 01:53:00
8:53 PM,53.1,26.1,35,29.86,10.0,WSW,5.8,-,N/A,,Clear,240,2013-02-11 02:53:00
9:53 PM,52.0,27.0,38,29.90,10.0,West,8.1,-,N/A,,Clear,270,2013-02-11 03:53:00
10:53 PM,48.9,27.0,43,29.95,10.0,WNW,9.2,27.6,N/A,,Clear,300,2013-02-11 04:53:00
11:53 PM,45.0,25.0,46,29.99,10.0,WNW,8.1,21.9,N/A,,Clear,300,2013-02-11 05:53:00